Year,Month,Day,Hour,Minute,Value (Times are PST for temperature in C)
2015,06,26,00,00,16.40
2015,06,26,00,01,16.40
2015,06,26,00,02,16.40
2015,06,26,00,03,16.40
2015,06,26,00,04,16.40
2015,06,26,00,05,16.40
2015,06,26,00,06,16.40
2015,06,26,00,07,16.40
2015,06,26,00,08,16.40
2015,06,26,00,09,16.40
2015,06,26,00,10,16.40
2015,06,26,00,11,16.40
2015,06,26,00,12,16.40
2015,06,26,00,13,16.40
2015,06,26,00,14,16.40
2015,06,26,00,15,16.40
2015,06,26,00,16,16.50
2015,06,26,00,17,16.50
2015,06,26,00,18,16.50
2015,06,26,00,19,16.60
2015,06,26,00,20,16.60
2015,06,26,00,21,16.60
2015,06,26,00,22,16.60
2015,06,26,00,23,16.70
2015,06,26,00,24,16.70
2015,06,26,00,25,16.70
2015,06,26,00,26,16.80
2015,06,26,00,27,16.80
2015,06,26,00,28,16.80
2015,06,26,00,29,16.80
2015,06,26,00,30,16.80
2015,06,26,00,31,16.90
2015,06,26,00,32,16.90
2015,06,26,00,33,16.90
2015,06,26,00,34,16.90
2015,06,26,00,35,16.90
2015,06,26,00,36,17.00
2015,06,26,00,37,17.00
2015,06,26,00,38,17.00
2015,06,26,00,39,17.00
2015,06,26,00,40,17.10
2015,06,26,00,41,17.10
2015,06,26,00,42,17.10
2015,06,26,00,43,17.10
2015,06,26,00,44,17.10
2015,06,26,00,45,17.10
2015,06,26,00,46,17.10
2015,06,26,00,47,17.10
2015,06,26,00,48,17.10
2015,06,26,00,49,17.10
2015,06,26,00,50,17.10
2015,06,26,00,51,17.10
2015,06,26,00,52,17.10
2015,06,26,00,53,17.10
2015,06,26,00,54,17.10
2015,06,26,00,55,17.20
2015,06,26,00,56,17.20
2015,06,26,00,57,17.20
2015,06,26,00,58,17.20
2015,06,26,00,59,17.30
2015,06,26,01,00,17.30
2015,06,26,01,01,17.30
2015,06,26,01,02,17.30
2015,06,26,01,03,17.40
2015,06,26,01,04,17.40
2015,06,26,01,05,17.40
2015,06,26,01,06,17.40
2015,06,26,01,07,17.50
2015,06,26,01,08,17.50
2015,06,26,01,09,17.50
2015,06,26,01,10,17.50
2015,06,26,01,11,17.60
2015,06,26,01,12,17.60
2015,06,26,01,13,17.60
2015,06,26,01,14,17.60
2015,06,26,01,15,17.60
2015,06,26,01,16,17.60
2015,06,26,01,17,17.70
2015,06,26,01,18,17.70
2015,06,26,01,19,17.70
2015,06,26,01,20,17.70
2015,06,26,01,21,17.70
2015,06,26,01,22,17.70
2015,06,26,01,23,17.70
2015,06,26,01,24,17.80
2015,06,26,01,25,17.80
2015,06,26,01,26,17.80
2015,06,26,01,27,17.80
2015,06,26,01,28,17.90
2015,06,26,01,29,17.90
2015,06,26,01,30,18.00
2015,06,26,01,31,18.10
2015,06,26,01,32,18.10
2015,06,26,01,33,18.10
2015,06,26,01,34,18.20
2015,06,26,01,35,18.20
2015,06,26,01,36,18.20
2015,06,26,01,37,18.20
2015,06,26,01,38,18.20
2015,06,26,01,39,18.30
2015,06,26,01,40,18.30
2015,06,26,01,41,18.30
2015,06,26,01,42,18.30
2015,06,26,01,43,18.30
2015,06,26,01,44,18.30
2015,06,26,01,45,18.30
2015,06,26,01,46,18.30
2015,06,26,01,47,18.30
2015,06,26,01,48,18.30
2015,06,26,01,49,18.30
2015,06,26,01,50,18.30
2015,06,26,01,51,18.30
2015,06,26,01,52,18.30
2015,06,26,01,53,18.30
2015,06,26,01,54,18.30
2015,06,26,01,55,18.30
2015,06,26,01,56,18.30
2015,06,26,01,57,18.30
2015,06,26,01,58,18.30
2015,06,26,01,59,18.30
2015,06,26,02,00,18.30
2015,06,26,02,01,18.30
2015,06,26,02,02,18.30
2015,06,26,02,03,18.20
2015,06,26,02,04,18.20
2015,06,26,02,05,18.20
2015,06,26,02,06,18.20
2015,06,26,02,07,18.20
2015,06,26,02,08,18.20
2015,06,26,02,09,18.20
2015,06,26,02,10,18.10
2015,06,26,02,11,18.10
2015,06,26,02,12,18.00
2015,06,26,02,13,18.00
2015,06,26,02,14,17.90
2015,06,26,02,15,17.90
2015,06,26,02,16,17.80
2015,06,26,02,17,17.80
2015,06,26,02,18,17.80
2015,06,26,02,19,17.80
2015,06,26,02,20,17.80
2015,06,26,02,21,17.80
2015,06,26,02,22,17.70
2015,06,26,02,23,17.70
2015,06,26,02,24,17.70
2015,06,26,02,25,17.70
2015,06,26,02,26,17.70
2015,06,26,02,27,17.70
2015,06,26,02,28,17.70
2015,06,26,02,29,17.70
2015,06,26,02,30,17.70
2015,06,26,02,31,17.70
2015,06,26,02,32,17.70
2015,06,26,02,33,17.70
2015,06,26,02,34,17.70
2015,06,26,02,35,17.70
2015,06,26,02,36,17.70
2015,06,26,02,37,17.70
2015,06,26,02,38,17.80
2015,06,26,02,39,17.80
2015,06,26,02,40,17.80
2015,06,26,02,41,17.80
2015,06,26,02,42,17.70
2015,06,26,02,43,17.70
2015,06,26,02,44,17.70
2015,06,26,02,45,17.70
2015,06,26,02,46,17.70
2015,06,26,02,47,17.70
2015,06,26,02,48,17.60
2015,06,26,02,49,17.60
2015,06,26,02,50,17.60
2015,06,26,02,51,17.60
2015,06,26,02,52,17.70
2015,06,26,02,53,17.70
2015,06,26,02,54,17.70
2015,06,26,02,55,17.70
2015,06,26,02,56,17.70
2015,06,26,02,57,17.80
2015,06,26,02,58,17.80
2015,06,26,02,59,17.80
2015,06,26,03,00,17.80
2015,06,26,03,01,17.80
2015,06,26,03,02,17.80
2015,06,26,03,06,17.90
2015,06,26,03,07,18.00
2015,06,26,03,08,18.00
2015,06,26,03,09,18.00
2015,06,26,03,10,18.00
2015,06,26,03,11,18.10
2015,06,26,03,12,18.10
2015,06,26,03,13,18.10
2015,06,26,03,14,18.10
2015,06,26,03,15,18.10
2015,06,26,03,16,18.10
2015,06,26,03,17,18.20
2015,06,26,03,18,18.20
2015,06,26,03,19,18.20
2015,06,26,03,20,18.20
2015,06,26,03,21,18.20
2015,06,26,03,22,18.20
2015,06,26,03,23,18.20
2015,06,26,03,24,18.20
2015,06,26,03,25,18.20
2015,06,26,03,26,18.30
2015,06,26,03,27,18.30
2015,06,26,03,28,18.30
2015,06,26,03,29,18.30
2015,06,26,03,30,18.30
2015,06,26,03,31,18.30
2015,06,26,03,32,18.30
2015,06,26,03,33,18.30
2015,06,26,03,34,18.30
2015,06,26,03,35,18.40
2015,06,26,03,36,18.40
2015,06,26,03,37,18.40
2015,06,26,03,38,18.40
2015,06,26,03,39,18.40
2015,06,26,03,40,18.40
2015,06,26,03,41,18.40
2015,06,26,03,42,18.40
2015,06,26,03,43,18.50
2015,06,26,03,44,18.50
2015,06,26,03,45,18.50
2015,06,26,03,46,18.50
2015,06,26,03,47,18.50
2015,06,26,03,48,18.50
2015,06,26,03,49,18.50
2015,06,26,03,50,18.50
2015,06,26,03,51,18.50
2015,06,26,03,52,18.50
2015,06,26,03,53,18.50
2015,06,26,03,54,18.50
2015,06,26,03,55,18.50
2015,06,26,03,56,18.50
2015,06,26,03,57,18.50
2015,06,26,03,58,18.50
2015,06,26,03,59,18.50
2015,06,26,04,00,18.50
2015,06,26,04,01,18.40
2015,06,26,04,02,18.50
2015,06,26,04,03,18.50
2015,06,26,04,04,18.50
2015,06,26,04,05,18.50
2015,06,26,04,06,18.50
2015,06,26,04,07,18.50
2015,06,26,04,08,18.50
2015,06,26,04,09,18.50
2015,06,26,04,10,18.50
2015,06,26,04,11,18.50
2015,06,26,04,12,18.50
2015,06,26,04,13,18.50
2015,06,26,04,14,18.50
2015,06,26,04,15,18.50
2015,06,26,04,16,18.60
2015,06,26,04,17,18.60
2015,06,26,04,18,18.60
2015,06,26,04,19,18.60
2015,06,26,04,20,18.60
2015,06,26,04,21,18.60
2015,06,26,04,22,18.70
2015,06,26,04,23,18.70
2015,06,26,04,24,18.70
2015,06,26,04,25,18.70
2015,06,26,04,26,18.70
2015,06,26,04,27,18.70
2015,06,26,04,28,18.70
2015,06,26,04,29,18.70
2015,06,26,04,30,18.70
2015,06,26,04,31,18.70
2015,06,26,04,32,18.80
2015,06,26,04,33,18.80
2015,06,26,04,34,18.80
2015,06,26,04,35,18.80
2015,06,26,04,36,18.80
2015,06,26,04,37,18.70
2015,06,26,04,38,18.70
2015,06,26,04,39,18.70
2015,06,26,04,40,18.70
2015,06,26,04,41,18.70
2015,06,26,04,42,18.70
2015,06,26,04,43,18.60
2015,06,26,04,44,18.60
2015,06,26,04,45,18.60
2015,06,26,04,46,18.60
2015,06,26,04,47,18.60
2015,06,26,04,48,18.50
2015,06,26,04,49,18.50
2015,06,26,04,50,18.50
2015,06,26,04,51,18.50
2015,06,26,04,52,18.50
2015,06,26,04,53,18.50
2015,06,26,04,54,18.50
2015,06,26,04,55,18.50
2015,06,26,04,56,18.50
2015,06,26,04,57,18.60
2015,06,26,04,58,18.60
2015,06,26,04,59,18.50
2015,06,26,05,00,18.60
2015,06,26,05,01,18.60
2015,06,26,05,02,18.60
2015,06,26,05,03,18.50
2015,06,26,05,04,18.50
2015,06,26,05,05,18.50
2015,06,26,05,06,18.50
2015,06,26,05,07,18.50
2015,06,26,05,08,18.40
2015,06,26,05,09,18.40
2015,06,26,05,10,18.40
2015,06,26,05,11,18.40
2015,06,26,05,12,18.40
2015,06,26,05,13,18.40
2015,06,26,05,14,18.40
2015,06,26,05,15,18.40
2015,06,26,05,16,18.30
2015,06,26,05,17,18.30
2015,06,26,05,18,18.30
2015,06,26,05,19,18.30
2015,06,26,05,20,18.30
2015,06,26,05,21,18.30
2015,06,26,05,22,18.30
2015,06,26,05,23,18.30
2015,06,26,05,24,18.30
2015,06,26,05,25,18.30
2015,06,26,05,26,18.30
2015,06,26,05,27,18.30
2015,06,26,05,28,18.30
2015,06,26,05,29,18.30
2015,06,26,05,30,18.30
2015,06,26,05,31,18.30
2015,06,26,05,32,18.30
2015,06,26,05,33,18.30
2015,06,26,05,34,18.40
2015,06,26,05,35,18.40
2015,06,26,05,36,18.30
2015,06,26,05,37,18.40
2015,06,26,05,38,18.40
2015,06,26,05,39,18.40
2015,06,26,05,40,18.30
2015,06,26,05,41,18.30
2015,06,26,05,42,18.30
2015,06,26,05,43,18.40
2015,06,26,05,44,18.40
2015,06,26,05,45,18.40
2015,06,26,05,46,18.30
2015,06,26,05,47,18.30
2015,06,26,05,48,18.30
2015,06,26,05,49,18.30
2015,06,26,05,50,18.30
2015,06,26,05,51,18.30
2015,06,26,05,52,18.30
2015,06,26,05,53,18.30
2015,06,26,05,54,18.40
2015,06,26,05,55,18.40
2015,06,26,05,56,18.40
2015,06,26,05,57,18.40
2015,06,26,05,58,18.40
2015,06,26,05,59,18.40
2015,06,26,06,00,18.40
2015,06,26,06,01,18.40
2015,06,26,06,02,18.40
2015,06,26,06,03,18.40
2015,06,26,06,04,18.30
2015,06,26,06,05,18.30
2015,06,26,06,06,18.30
2015,06,26,06,07,18.30
2015,06,26,06,08,18.30
2015,06,26,06,09,18.30
2015,06,26,06,10,18.30
2015,06,26,06,11,18.30
2015,06,26,06,12,18.30
2015,06,26,06,13,18.20
2015,06,26,06,14,18.30
2015,06,26,06,15,18.30
2015,06,26,06,16,18.30
2015,06,26,06,17,18.30
2015,06,26,06,18,18.30
2015,06,26,06,19,18.30
2015,06,26,06,20,18.30
2015,06,26,06,21,18.30
2015,06,26,06,22,18.30
2015,06,26,06,23,18.40
2015,06,26,06,24,18.40
2015,06,26,06,25,18.40
2015,06,26,06,26,18.40
2015,06,26,06,27,18.40
2015,06,26,06,28,18.40
2015,06,26,06,29,18.40
2015,06,26,06,30,18.50
2015,06,26,06,31,18.40
2015,06,26,06,32,18.40
2015,06,26,06,33,18.40
2015,06,26,06,34,18.40
2015,06,26,06,35,18.40
2015,06,26,06,36,18.40
2015,06,26,06,37,18.40
2015,06,26,06,38,18.40
2015,06,26,06,39,18.40
2015,06,26,06,40,18.40
2015,06,26,06,41,18.40
2015,06,26,06,42,18.40
2015,06,26,06,43,18.50
2015,06,26,06,44,18.50
2015,06,26,06,45,18.50
2015,06,26,06,46,18.60
2015,06,26,06,47,18.60
2015,06,26,06,48,18.60
2015,06,26,06,49,18.60
2015,06,26,06,50,18.60
2015,06,26,06,51,18.60
2015,06,26,06,52,18.60
2015,06,26,06,53,18.70
2015,06,26,06,54,18.70
2015,06,26,06,55,18.70
2015,06,26,06,56,18.70
2015,06,26,06,57,18.70
2015,06,26,06,58,18.80
2015,06,26,06,59,18.80
2015,06,26,07,00,18.80
2015,06,26,07,01,18.80
2015,06,26,07,02,18.80
2015,06,26,07,03,18.90
2015,06,26,07,04,18.90
2015,06,26,07,05,19.00
2015,06,26,07,06,19.10
2015,06,26,07,07,19.10
2015,06,26,07,08,19.20
2015,06,26,07,09,19.20
2015,06,26,07,10,19.30
2015,06,26,07,11,19.30
2015,06,26,07,12,19.30
2015,06,26,07,13,19.40
2015,06,26,07,14,19.40
2015,06,26,07,15,19.40
2015,06,26,07,16,19.50
2015,06,26,07,17,19.60
2015,06,26,07,18,19.60
2015,06,26,07,19,19.60
2015,06,26,07,20,19.70
2015,06,26,07,21,19.70
2015,06,26,07,22,19.70
2015,06,26,07,23,19.70
2015,06,26,07,24,19.70
2015,06,26,07,25,19.80
2015,06,26,07,26,19.80
2015,06,26,07,27,19.80
2015,06,26,07,28,19.90
2015,06,26,07,29,19.90
2015,06,26,07,30,19.90
2015,06,26,07,31,19.90
2015,06,26,07,32,19.90
2015,06,26,07,33,20.00
2015,06,26,07,34,20.00
2015,06,26,07,35,20.10
2015,06,26,07,36,20.10
2015,06,26,07,37,20.10
2015,06,26,07,38,20.20
2015,06,26,07,39,20.20
2015,06,26,07,40,20.20
2015,06,26,07,41,20.20
2015,06,26,07,42,20.20
2015,06,26,07,43,20.30
2015,06,26,07,44,20.30
2015,06,26,07,45,20.30
2015,06,26,07,46,20.30
2015,06,26,07,47,20.30
2015,06,26,07,48,20.30
2015,06,26,07,49,20.30
2015,06,26,07,50,20.40
2015,06,26,07,51,20.40
2015,06,26,07,52,20.40
2015,06,26,07,53,20.40
2015,06,26,07,54,20.40
2015,06,26,07,55,20.40
2015,06,26,07,56,20.40
2015,06,26,07,57,20.50
2015,06,26,07,58,20.50
2015,06,26,07,59,20.50
2015,06,26,08,00,20.50
2015,06,26,08,01,20.50
2015,06,26,08,02,20.50
2015,06,26,08,03,20.50
2015,06,26,08,04,20.50
2015,06,26,08,05,20.60
2015,06,26,08,06,20.60
2015,06,26,08,07,20.60
2015,06,26,08,08,20.60
2015,06,26,08,09,20.70
2015,06,26,08,10,20.70
2015,06,26,08,11,20.70
2015,06,26,08,12,20.80
2015,06,26,08,13,20.80
2015,06,26,08,14,20.80
2015,06,26,08,15,20.80
2015,06,26,08,16,20.90
2015,06,26,08,17,20.90
2015,06,26,08,18,21.00
2015,06,26,08,19,21.00
2015,06,26,08,20,21.10
2015,06,26,08,21,21.10
2015,06,26,08,22,21.10
2015,06,26,08,23,21.20
2015,06,26,08,24,21.20
2015,06,26,08,25,21.20
2015,06,26,08,26,21.30
2015,06,26,08,27,21.30
2015,06,26,08,28,21.30
2015,06,26,08,29,21.30
2015,06,26,08,30,21.30
2015,06,26,08,31,21.30
2015,06,26,08,32,21.30
2015,06,26,08,33,21.40
2015,06,26,08,34,21.40
2015,06,26,08,35,21.40
2015,06,26,08,36,21.50
2015,06,26,08,37,21.50
2015,06,26,08,38,21.50
2015,06,26,08,39,21.60
2015,06,26,08,40,21.60
2015,06,26,08,41,21.60
2015,06,26,08,42,21.60
2015,06,26,08,43,21.60
2015,06,26,08,44,21.70
2015,06,26,08,45,21.70
2015,06,26,08,46,21.70
2015,06,26,08,47,21.70
2015,06,26,08,48,21.70
2015,06,26,08,49,21.70
2015,06,26,08,50,21.80
2015,06,26,08,51,21.80
2015,06,26,08,52,21.80
2015,06,26,08,53,21.90
2015,06,26,08,54,22.00
2015,06,26,08,55,22.00
2015,06,26,08,56,22.10
2015,06,26,08,57,22.20
2015,06,26,08,58,22.20
2015,06,26,08,59,22.30
2015,06,26,09,00,22.30
2015,06,26,09,01,22.30
2015,06,26,09,02,22.30
2015,06,26,09,03,22.30
2015,06,26,09,04,22.40
2015,06,26,09,05,22.40
2015,06,26,09,06,22.50
2015,06,26,09,07,22.60
2015,06,26,09,08,22.60
2015,06,26,09,09,22.60
2015,06,26,09,10,22.60
2015,06,26,09,11,22.70
2015,06,26,09,12,22.70
2015,06,26,09,13,22.80
2015,06,26,09,14,22.80
2015,06,26,09,15,22.90
2015,06,26,09,16,23.00
2015,06,26,09,17,23.00
2015,06,26,09,18,23.10
2015,06,26,09,19,23.10
2015,06,26,09,20,23.10
2015,06,26,09,21,23.10
2015,06,26,09,22,23.10
2015,06,26,09,23,23.00
2015,06,26,09,24,23.00
2015,06,26,09,25,22.90
2015,06,26,09,26,22.90
2015,06,26,09,27,22.90
2015,06,26,09,28,23.00
2015,06,26,09,29,23.10
2015,06,26,09,30,23.20
2015,06,26,09,31,23.30
2015,06,26,09,32,23.30
2015,06,26,09,33,23.40
2015,06,26,09,34,23.40
2015,06,26,09,35,23.30
2015,06,26,09,36,23.30
2015,06,26,09,37,23.30
2015,06,26,09,38,23.30
2015,06,26,09,39,23.30
2015,06,26,09,40,23.40
2015,06,26,09,41,23.40
2015,06,26,09,42,23.40
2015,06,26,09,43,23.40
2015,06,26,09,44,23.40
2015,06,26,09,45,23.40
2015,06,26,09,46,23.40
2015,06,26,09,47,23.40
2015,06,26,09,48,23.40
2015,06,26,09,49,23.40
2015,06,26,09,50,23.40
2015,06,26,09,51,23.50
2015,06,26,09,52,23.60
2015,06,26,09,53,23.70
2015,06,26,09,54,23.80
2015,06,26,09,55,23.80
2015,06,26,09,56,23.90
2015,06,26,09,57,23.90
2015,06,26,09,58,23.90
2015,06,26,09,59,23.90
2015,06,26,10,00,23.90
2015,06,26,10,01,23.90
2015,06,26,10,02,23.90
2015,06,26,10,03,24.00
2015,06,26,10,04,24.10
2015,06,26,10,05,24.10
2015,06,26,10,06,24.20
2015,06,26,10,07,24.30
2015,06,26,10,08,24.30
2015,06,26,10,09,24.40
2015,06,26,10,10,24.40
2015,06,26,10,11,24.40
2015,06,26,10,12,24.50
2015,06,26,10,13,24.60
2015,06,26,10,14,24.70
2015,06,26,10,15,24.70
2015,06,26,10,16,24.60
2015,06,26,10,17,24.60
2015,06,26,10,18,24.60
2015,06,26,10,19,24.60
2015,06,26,10,20,24.70
2015,06,26,10,21,24.70
2015,06,26,10,22,24.70
2015,06,26,10,23,24.70
2015,06,26,10,24,24.80
2015,06,26,10,25,24.80
2015,06,26,10,26,24.80
2015,06,26,10,27,24.90
2015,06,26,10,28,24.90
2015,06,26,10,29,24.90
2015,06,26,10,30,25.00
2015,06,26,10,31,25.00
2015,06,26,10,32,25.10
2015,06,26,10,33,25.10
2015,06,26,10,34,25.10
2015,06,26,10,35,25.00
2015,06,26,10,36,24.90
2015,06,26,10,37,24.90
2015,06,26,10,38,24.90
2015,06,26,10,39,24.90
2015,06,26,10,40,25.00
2015,06,26,10,41,25.10
2015,06,26,10,42,25.20
2015,06,26,10,43,25.20
2015,06,26,10,44,25.20
2015,06,26,10,45,25.10
2015,06,26,10,46,25.20
2015,06,26,10,47,25.20
2015,06,26,10,48,25.30
2015,06,26,10,49,25.30
2015,06,26,10,50,25.40
2015,06,26,10,51,25.50
2015,06,26,10,52,25.60
2015,06,26,10,53,25.60
2015,06,26,10,54,25.60
2015,06,26,10,55,25.60
2015,06,26,10,56,25.70
2015,06,26,10,57,25.80
2015,06,26,10,58,25.80
2015,06,26,10,59,25.90
2015,06,26,11,00,25.90
2015,06,26,11,01,25.90
2015,06,26,11,02,25.90
2015,06,26,11,03,25.90
2015,06,26,11,04,26.00
2015,06,26,11,05,26.00
2015,06,26,11,06,26.10
2015,06,26,11,07,26.10
2015,06,26,11,08,26.20
2015,06,26,11,09,26.20
2015,06,26,11,10,26.10
2015,06,26,11,11,26.10
2015,06,26,11,12,26.10
2015,06,26,11,13,26.00
2015,06,26,11,14,25.90
2015,06,26,11,15,25.90
2015,06,26,11,16,25.90
2015,06,26,11,17,25.90
2015,06,26,11,18,26.00
2015,06,26,11,19,26.10
2015,06,26,11,20,26.20
2015,06,26,11,21,26.30
2015,06,26,11,22,26.30
2015,06,26,11,23,26.40
2015,06,26,11,24,26.40
2015,06,26,11,25,26.50
2015,06,26,11,26,26.60
2015,06,26,11,27,26.60
2015,06,26,11,28,26.60
2015,06,26,11,29,26.80
2015,06,26,11,30,26.80
2015,06,26,11,31,26.70
2015,06,26,11,32,26.60
2015,06,26,11,33,26.50
2015,06,26,11,34,26.50
2015,06,26,11,35,26.50
2015,06,26,11,36,26.60
2015,06,26,11,37,26.60
2015,06,26,11,38,26.60
2015,06,26,11,39,26.60
2015,06,26,11,40,26.70
2015,06,26,11,41,26.70
2015,06,26,11,42,26.70
2015,06,26,11,43,26.70
2015,06,26,11,44,26.80
2015,06,26,11,45,26.80
2015,06,26,11,46,26.70
2015,06,26,11,47,26.70
2015,06,26,11,48,26.50
2015,06,26,11,49,26.30
2015,06,26,11,50,26.30
2015,06,26,11,51,26.30
2015,06,26,11,52,26.30
2015,06,26,11,53,26.30
2015,06,26,11,54,26.20
2015,06,26,11,55,26.30
2015,06,26,11,56,26.40
2015,06,26,11,57,26.40
2015,06,26,11,58,26.40
2015,06,26,11,59,26.50
2015,06,26,12,00,26.50
2015,06,26,12,01,26.60
2015,06,26,12,02,26.60
2015,06,26,12,03,26.60
2015,06,26,12,04,26.60
2015,06,26,12,05,26.70
2015,06,26,12,06,26.70
2015,06,26,12,07,26.70
2015,06,26,12,08,26.80
2015,06,26,12,09,26.80
2015,06,26,12,10,26.80
2015,06,26,12,11,26.90
2015,06,26,12,12,27.10
2015,06,26,12,13,27.20
2015,06,26,12,14,27.30
2015,06,26,12,15,27.30
2015,06,26,12,16,27.40
2015,06,26,12,17,27.50
2015,06,26,12,18,27.50
2015,06,26,12,19,27.50
2015,06,26,12,20,27.50
2015,06,26,12,21,27.50
2015,06,26,12,22,27.50
2015,06,26,12,23,27.50
2015,06,26,12,24,27.60
2015,06,26,12,25,27.70
2015,06,26,12,26,27.80
2015,06,26,12,27,27.90
2015,06,26,12,28,27.90
2015,06,26,12,29,27.90
2015,06,26,12,30,27.90
2015,06,26,12,31,27.80
2015,06,26,12,32,27.90
2015,06,26,12,33,28.00
2015,06,26,12,34,28.10
2015,06,26,12,35,28.20
2015,06,26,12,36,28.30
2015,06,26,12,37,28.30
2015,06,26,12,38,28.30
2015,06,26,12,39,28.30
2015,06,26,12,40,28.40
2015,06,26,12,41,28.40
2015,06,26,12,42,28.40
2015,06,26,12,43,28.40
2015,06,26,12,44,28.40
2015,06,26,12,45,28.50
2015,06,26,12,46,28.50
2015,06,26,12,47,28.60
2015,06,26,12,48,28.70
2015,06,26,12,49,28.70
2015,06,26,12,50,28.50
2015,06,26,12,51,28.40
2015,06,26,12,52,28.30
2015,06,26,12,53,28.20
2015,06,26,12,54,28.20
2015,06,26,12,55,28.20
2015,06,26,12,56,28.20
2015,06,26,12,57,28.30
2015,06,26,12,58,28.30
2015,06,26,12,59,28.30
2015,06,26,13,00,28.30
2015,06,26,13,01,28.30
2015,06,26,13,02,28.30
2015,06,26,13,03,28.30
2015,06,26,13,04,28.20
2015,06,26,13,05,28.20
2015,06,26,13,06,28.30
2015,06,26,13,07,28.30
2015,06,26,13,08,28.40
2015,06,26,13,09,28.30
2015,06,26,13,10,28.20
2015,06,26,13,11,28.10
2015,06,26,13,12,28.10
2015,06,26,13,13,28.00
2015,06,26,13,14,28.00
2015,06,26,13,15,27.90
2015,06,26,13,16,27.90
2015,06,26,13,17,28.00
2015,06,26,13,18,28.10
2015,06,26,13,19,28.30
2015,06,26,13,20,28.40
2015,06,26,13,21,28.50
2015,06,26,13,22,28.60
2015,06,26,13,23,28.70
2015,06,26,13,24,28.70
2015,06,26,13,25,28.70
2015,06,26,13,26,28.60
2015,06,26,13,27,28.60
2015,06,26,13,28,28.60
2015,06,26,13,29,28.70
2015,06,26,13,30,28.70
2015,06,26,13,31,28.70
2015,06,26,13,32,28.80
2015,06,26,13,33,28.70
2015,06,26,13,34,28.80
2015,06,26,13,35,28.80
2015,06,26,13,36,28.80
2015,06,26,13,37,28.90
2015,06,26,13,38,28.90
2015,06,26,13,39,28.90
2015,06,26,13,40,29.00
2015,06,26,13,41,29.10
2015,06,26,13,42,29.00
2015,06,26,13,43,29.00
2015,06,26,13,44,29.00
2015,06,26,13,45,29.10
2015,06,26,13,46,29.10
2015,06,26,13,47,29.30
2015,06,26,13,48,29.40
2015,06,26,13,49,29.60
2015,06,26,13,50,29.60
2015,06,26,13,51,29.80
2015,06,26,13,52,29.90
2015,06,26,13,53,30.00
2015,06,26,13,54,30.10
2015,06,26,13,55,30.10
2015,06,26,13,56,30.10
2015,06,26,13,57,30.10
2015,06,26,13,58,30.10
2015,06,26,13,59,30.10
2015,06,26,14,00,30.10
2015,06,26,14,01,30.20
2015,06,26,14,02,30.20
2015,06,26,14,03,30.20
2015,06,26,14,04,30.20
2015,06,26,14,05,30.10
2015,06,26,14,06,30.00
2015,06,26,14,07,29.90
2015,06,26,14,08,29.90
2015,06,26,14,09,29.90
2015,06,26,14,10,29.80
2015,06,26,14,11,29.80
2015,06,26,14,12,29.80
2015,06,26,14,13,29.80
2015,06,26,14,14,29.80
2015,06,26,14,15,29.80
2015,06,26,14,16,29.80
2015,06,26,14,17,29.80
2015,06,26,14,18,29.80
2015,06,26,14,19,30.00
2015,06,26,14,20,30.00
2015,06,26,14,21,30.10
2015,06,26,14,22,30.20
2015,06,26,14,23,30.30
2015,06,26,14,24,30.20
2015,06,26,14,25,30.20
2015,06,26,14,26,30.20
2015,06,26,14,27,30.30
2015,06,26,14,28,30.30
2015,06,26,14,29,30.30
2015,06,26,14,30,30.20
2015,06,26,14,31,30.10
2015,06,26,14,32,30.00
2015,06,26,14,33,29.90
2015,06,26,14,34,29.90
2015,06,26,14,35,29.80
2015,06,26,14,36,29.90
2015,06,26,14,37,29.90
2015,06,26,14,38,29.90
2015,06,26,14,39,30.00
2015,06,26,14,40,30.10
2015,06,26,14,41,30.20
2015,06,26,14,42,30.20
2015,06,26,14,43,30.20
2015,06,26,14,44,30.20
2015,06,26,14,45,30.20
2015,06,26,14,46,30.20
2015,06,26,14,47,30.20
2015,06,26,14,48,30.20
2015,06,26,14,49,30.30
2015,06,26,14,50,30.30
2015,06,26,14,51,30.40
2015,06,26,14,52,30.40
2015,06,26,14,53,30.40
2015,06,26,14,54,30.50
2015,06,26,14,55,30.50
2015,06,26,14,56,30.50
2015,06,26,14,57,30.70
2015,06,26,14,58,30.80
2015,06,26,14,59,30.80
2015,06,26,15,00,30.60
2015,06,26,15,01,30.50
2015,06,26,15,02,30.40
2015,06,26,15,03,30.40
2015,06,26,15,04,30.40
2015,06,26,15,05,30.50
2015,06,26,15,06,30.60
2015,06,26,15,07,30.60
2015,06,26,15,08,30.60
2015,06,26,15,09,30.50
2015,06,26,15,10,30.40
2015,06,26,15,11,30.30
2015,06,26,15,12,30.20
2015,06,26,15,13,30.20
2015,06,26,15,14,30.20
2015,06,26,15,15,30.30
2015,06,26,15,16,30.40
2015,06,26,15,17,30.40
2015,06,26,15,18,30.40
2015,06,26,15,19,30.40
2015,06,26,15,20,30.40
2015,06,26,15,21,30.40
2015,06,26,15,22,30.40
2015,06,26,15,23,30.30
2015,06,26,15,24,30.20
2015,06,26,15,25,30.20
2015,06,26,15,26,30.20
2015,06,26,15,27,30.20
2015,06,26,15,28,30.20
2015,06,26,15,29,30.10
2015,06,26,15,30,30.20
2015,06,26,15,31,30.20
2015,06,26,15,32,30.30
2015,06,26,15,33,30.30
2015,06,26,15,34,30.40
2015,06,26,15,35,30.30
2015,06,26,15,36,30.30
2015,06,26,15,37,30.30
2015,06,26,15,38,30.30
2015,06,26,15,39,30.30
2015,06,26,15,40,30.20
2015,06,26,15,41,30.20
2015,06,26,15,42,30.10
2015,06,26,15,43,30.10
2015,06,26,15,44,30.10
2015,06,26,15,45,30.00
2015,06,26,15,46,29.90
2015,06,26,15,47,29.90
2015,06,26,15,48,29.80
2015,06,26,15,49,29.90
2015,06,26,15,50,29.90
2015,06,26,15,51,29.90
2015,06,26,15,52,30.00
2015,06,26,15,53,30.10
2015,06,26,15,54,30.20
2015,06,26,15,55,30.30
2015,06,26,15,56,30.40
2015,06,26,15,57,30.60
2015,06,26,15,58,30.80
2015,06,26,15,59,30.90
2015,06,26,16,00,31.00
2015,06,26,16,01,31.00
2015,06,26,16,02,31.10
2015,06,26,16,03,31.30
2015,06,26,16,04,31.40
2015,06,26,16,05,31.40
2015,06,26,16,06,31.40
2015,06,26,16,07,31.30
2015,06,26,16,08,31.20
2015,06,26,16,09,31.10
2015,06,26,16,10,31.10
2015,06,26,16,11,31.10
2015,06,26,16,12,31.10
2015,06,26,16,13,31.00
2015,06,26,16,14,31.00
2015,06,26,16,15,30.90
2015,06,26,16,16,31.00
2015,06,26,16,17,31.00
2015,06,26,16,18,31.00
2015,06,26,16,19,30.90
2015,06,26,16,20,30.80
2015,06,26,16,21,30.70
2015,06,26,16,22,30.70
2015,06,26,16,23,30.60
2015,06,26,16,24,30.40
2015,06,26,16,25,30.40
2015,06,26,16,26,30.40
2015,06,26,16,27,30.30
2015,06,26,16,28,30.40
2015,06,26,16,29,30.40
2015,06,26,16,30,30.50
2015,06,26,16,31,30.50
2015,06,26,16,32,30.60
2015,06,26,16,33,30.70
2015,06,26,16,34,30.70
2015,06,26,16,35,30.80
2015,06,26,16,36,30.70
2015,06,26,16,37,30.80
2015,06,26,16,38,30.90
2015,06,26,16,39,30.90
2015,06,26,16,40,31.00
2015,06,26,16,41,31.00
2015,06,26,16,42,31.10
2015,06,26,16,43,31.10
2015,06,26,16,44,31.10
2015,06,26,16,45,31.10
2015,06,26,16,46,31.20
2015,06,26,16,47,31.20
2015,06,26,16,48,31.10
2015,06,26,16,49,31.10
2015,06,26,16,50,31.10
2015,06,26,16,51,31.20
2015,06,26,16,52,31.30
2015,06,26,16,53,31.40
2015,06,26,16,54,31.50
2015,06,26,16,55,31.50
2015,06,26,16,56,31.40
2015,06,26,16,57,31.30
2015,06,26,16,58,31.30
2015,06,26,16,59,31.20
2015,06,26,17,00,31.20
2015,06,26,17,01,31.10
2015,06,26,17,02,31.10
2015,06,26,17,03,31.10
2015,06,26,17,04,31.10
2015,06,26,17,05,31.00
2015,06,26,17,06,30.90
2015,06,26,17,07,30.90
2015,06,26,17,08,30.90
2015,06,26,17,09,30.90
2015,06,26,17,10,30.90
2015,06,26,17,11,31.00
2015,06,26,17,12,30.90
2015,06,26,17,13,30.90
2015,06,26,17,14,30.90
2015,06,26,17,15,30.90
2015,06,26,17,16,31.00
2015,06,26,17,17,31.10
2015,06,26,17,18,31.20
2015,06,26,17,19,31.20
2015,06,26,17,20,31.20
2015,06,26,17,21,31.10
2015,06,26,17,22,31.10